Find Starlink 5085

NORAD ID: 55392 Int'l Des: 2023-014 Owner: SPXS Country: US Constellation: starlink operational
LEOCIRCULAR

实时位置

正在加载3D地球...

关于 Starlink 5085

正在加载描述...

即将过境

Passes for default location (London). Set your location on the main map for personalized predictions.

高度历史

Loading altitude history...

两行轨道根数

1 55392U 23014B 26120.84433142 .00000299 00000-0 32836-4 0 9990
2 55392 69.9989 272.8426 0003190 268.4709 91.6085 14.98330538180367
Epoch: Apr 30, 2026 • Age: 17 hours

当前状态

高度 581.8 km
速度 7.57 km/s
星下点 52.53°N, 10.99°E
发射日期 Jan 31, 2023
运行时间 3.2 years
类型 internet

技术详情

分类 Payload
质量 305.00 kg
干质量 290.00 kg
总质量 305.00 kg
长度 0.20 m
直径 2.80 m
跨度 9.00 m
形状 Box + pan
制造商 SPXS
平台类型 Starlink
阶段状态 In Orbit
所有者/国家 SPXS/US

Most Searched